Starlink 32003

operational
NORAD ID: 60097 Int'l Des: 2024-117 Owner: SPXS Country: US Constellation: starlink
LEOCIRCULAR

About Starlink 32003

Description loading...

Live Position

Loading 3D Globe...

Upcoming Passes

Altitude History

Altitude vs Time

uPlot chart will show altitude changes over time

Two-Line Element Set

1 60097U 24117G 25351.16695432 .00002335 00000-0 90905-4 0 9999
2 60097 53.1596 60.3093 0001265 98.0082 262.1062 15.30209632 84254
Epoch: Dec 17, 2025 • Age: 16 hours

Current Status

Altitude 479.1 km
Velocity 7.63 km/s
Sub-Earth Point 44.48°N, 78.36°E
Launch Date Jun 23, 2024
Age 1.4 years
Type internet

Technical Details

Classification Payload
Mass 730.00 kg
Dry Mass 700.00 kg
Total Mass 730.00 kg
Length 0.30 m
Diameter 4.10 m
Span 29.00 m
Shape Box + pan
Manufacturer SPXS
Bus Type Starlink V2M
Phase Status In Orbit
Owner/State SPXS/US

Large Constellations

Loading constellations...